GW6973 Weather Reports


time (UTC)temp
C
wind
direction
speed
KPH
gust
KPH
rain 1hr
cm
rain 24hr
cm
rain mn
cm
humidity
%
barometer
mb
20260504150949 7 134 1.6 3.2 0.00 0.00 0.00 60 1016.9
20260504150449 7 113 1.6 3.2 0.00 0.00 0.00 61 1016.7
20260504141010 6 68 0.0 3.2 0.00 0.00 0.00 66 1016.7
20260504140449 6 0 0.0 1.6 0.00 0.00 0.00 66 1016.9
20260504130449 6 76 0.0 1.6 0.00 0.00 0.00 67 1016.6
20260504110450 6 42 1.6 4.8 0.00 0.00 0.00 62 1016.8
20260504100450 7 40 3.2 9.7 0.00 0.00 0.00 57 1016.9
20260504082004 5 0 0.0 1.6 0.00 0.00 0.00 60 1016.5
20260504081503 5 70 0.0 3.2 0.00 0.00 0.00 60 1016.4
20260504081025 5 66 1.6 3.2 0.00 0.00 0.00 60 1016.3
20260504080525 4 47 0.0 3.2 0.00 0.00 0.00 61 1016.3
20260504050503 12 35 9.7 20.9 0.00 0.00 0.00 41 1010.5
20260504050003 11 29 8.0 17.7 0.00 0.00 0.00 44 1010.6
20260504045503 11 27 4.8 16.1 0.00 0.00 0.00 45 1010.5
20260504045003 11 27 3.2 6.4 0.00 0.00 0.00 42 1009.3
20260504044504 10 337 4.8 9.7 0.00 0.00 0.00 43 1009.1
20260504044003 11 273 4.8 9.7 0.00 0.00 0.00 42 1009.0
20260504043503 11 275 6.4 9.7 0.00 0.00 0.00 42 1009.0
20260504043003 11 280 4.8 6.4 0.00 0.00 0.00 42 1009.0
20260504042503 11 288 4.8 6.4 0.00 0.00 0.00 42 1009.1
20260504042003 11 275 4.8 6.4 0.00 0.00 0.00 42 1009.3
20260504041503 11 276 4.8 6.4 0.00 0.00 0.00 42 1009.0
20260504041024 11 278 4.8 6.4 0.00 0.00 0.00 42 1009.4
20260504040504 11 270 6.4 9.7 0.00 0.00 0.00 42 1009.1
20260504040004 11 269 4.8 9.7 0.00 0.00 0.00 42 1009.0
20260504035504 11 284 4.8 6.4 0.00 0.00 0.00 42 1008.8
20260504035024 11 272 4.8 6.4 0.00 0.00 0.00 41 1008.9
20260504034504 11 273 3.2 4.8 0.00 0.00 0.00 42 1008.8
20260504034004 11 343 1.6 4.8 0.00 0.00 0.00 42 1008.8
20260504033524 11 10 1.6 4.8 0.00 0.00 0.00 43 1008.8
20260504033024 10 0 3.2 4.8 0.00 0.00 0.00 43 1008.7
20260504032524 10 270 3.2 4.8 0.00 0.00 0.00 42 1008.8
20260504032024 11 285 3.2 4.8 0.00 0.00 0.00 41 1008.8
20260504031503 11 284 4.8 4.8 0.00 0.00 0.00 39 1008.8
20260504031003 11 273 3.2 4.8 0.00 0.03 0.00 39 1008.9
20260504030503 12 302 1.6 4.8 0.00 0.08 0.00 39 1008.8
20260504030024 13 51 0.0 3.2 0.00 0.08 0.00 37 1008.7
20260504025525 13 0 0.0 3.2 0.00 0.08 0.00 36 1008.7
20260504025003 13 37 1.6 3.2 0.00 0.08 0.00 35 1008.7
20260504024503 13 47 1.6 3.2 0.00 0.08 0.00 35 1008.5
20260504024024 13 36 1.6 3.2 0.00 0.08 0.00 35 1008.8
20260504023503 14 43 1.6 3.2 0.00 0.08 0.00 36 1008.7
20260504023024 15 45 1.6 1.6 0.00 0.08 0.00 36 1008.7
20260504022503 15 58 1.6 1.6 0.00 0.08 0.00 35 1008.6
20260504022003 16 60 1.6 1.6 0.00 0.08 0.00 34 1008.6
20260504021503 17 51 1.6 1.6 0.00 0.08 0.00 32 1008.6
20260504021003 17 53 1.6 1.6 0.00 0.08 0.00 31 1008.7
20260504020503 18 62 1.6 4.8 0.00 0.08 0.00 29 1008.5
20260504020004 19 67 3.2 6.4 0.00 0.08 0.00 27 1008.6
20260504015503 19 358 4.8 9.7 0.00 0.08 0.00 26 1008.3
20260504015003 20 359 4.8 9.7 0.00 0.08 0.00 25 1008.6
20260504014503 21 333 4.8 6.4 0.00 0.08 0.00 24 1008.7
20260504014024 21 358 4.8 9.7 0.00 0.08 0.00 23 1008.7
20260504013524 21 360 4.8 11.3 0.00 0.08 0.00 22 1008.5
20260504013003 21 1 6.4 11.3 0.00 0.08 0.00 22 1008.7
20260504012503 21 345 6.4 11.3 0.00 0.08 0.00 22 1008.6
20260504012003 21 359 6.4 12.9 0.00 0.08 0.00 22 1008.7
20260504011524 21 331 6.4 14.5 0.00 0.08 0.00 21 1008.6
20260504011003 22 354 8.0 14.5 0.00 0.08 0.00 20 1008.7
20260504010503 22 343 6.4 16.1 0.00 0.08 0.00 20 1008.8
20260504010004 22 350 8.0 16.1 0.00 0.08 0.00 19 1008.8
20260504005503 22 317 6.4 14.5 0.00 0.08 0.00 18 1008.7
20260504005004 22 339 4.8 11.3 0.00 0.08 0.00 18 1008.8
20260504004503 22 43 6.4 12.9 0.00 0.08 0.00 18 1008.7
20260504004003 22 21 8.0 12.9 0.00 0.08 0.00 17 1008.6
20260504003503 23 346 8.0 12.9 0.00 0.08 0.00 18 1008.9
20260504003003 23 3 6.4 12.9 0.00 0.08 0.00 17 1008.7
20260504002503 23 319 4.8 12.9 0.00 0.08 0.00 16 1008.9
20260504002024 23 318 6.4 16.1 0.00 0.08 0.00 16 1008.8
20260504001503 23 16 6.4 16.1 0.00 0.08 0.00 16 1008.8
20260504001024 23 327 6.4 16.1 0.00 0.08 0.00 15 1008.8
20260504000503 23 351 6.4 11.3 0.00 0.08 0.00 16 1008.8
20260504000003 24 332 4.8 11.3 0.00 0.08 0.00 15 1008.8
20260503235503 25 278 4.8 9.7 0.00 0.08 0.00 14 1009.0
20260503235003 25 291 4.8 9.7 0.00 0.08 0.00 15 1008.9
20260503234503 24 328 4.8 11.3 0.00 0.08 0.00 15 1009.0
20260503234003 23 344 4.8 12.9 0.00 0.08 0.00 15 1009.1
20260503233524 24 354 4.8 12.9 0.00 0.08 0.00 16 1009.0
20260503233003 24 336 8.0 12.9 0.00 0.08 0.00 15 1009.4
20260503232503 25 318 8.0 12.9 0.00 0.08 0.00 15 1009.0
20260503232003 25 336 6.4 12.9 0.00 0.08 0.00 14 1009.3
20260503231503 25 278 6.4 12.9 0.00 0.08 0.00 15 1009.0
20260503231003 25 6 4.8 12.9 0.00 0.08 0.00 14 1009.1
20260503230503 25 314 4.8 11.3 0.00 0.08 0.00 14 1009.3
20260503230003 25 297 4.8 12.9 0.00 0.08 0.00 15 1009.3
20260503225503 25 46 4.8 12.9 0.00 0.08 0.00 14 1009.1
20260503225003 25 266 4.8 12.9 0.00 0.08 0.00 15 1009.3
20260503224503 25 234 4.8 11.3 0.00 0.08 0.00 14 1009.5
20260503224003 25 213 6.4 16.1 0.00 0.08 0.00 14 1009.4
20260503223524 25 278 8.0 16.1 0.00 0.08 0.00 14 1009.5
20260503223003 25 290 8.0 16.1 0.00 0.08 0.00 13 1009.5
20260503222503 25 265 6.4 12.9 0.00 0.08 0.00 13 1009.5
20260503222024 25 9 4.8 12.9 0.00 0.08 0.00 15 1009.6
20260503221503 25 24 3.2 12.9 0.00 0.08 0.00 17 1009.7
20260503221003 24 40 3.2 11.3 0.00 0.08 0.00 17 1009.8
20260503220503 24 349 6.4 14.5 0.00 0.08 0.00 15 1009.9
20260503220003 25 353 6.4 14.5 0.00 0.08 0.00 16 1009.8
20260503215503 25 297 4.8 14.5 0.00 0.08 0.00 15 1009.8
20260503214931 24 267 4.8 14.5 0.00 0.08 0.00 15 1009.9
20260503214431 25 164 6.4 16.1 0.00 0.08 0.00 15 1010.0
20260503213932 25 292 6.4 16.1 0.00 0.08 0.00 16 1009.9
20260503213431 25 281 4.8 11.3 0.00 0.08 0.00 17 1010.0
20260503212932 24 122 3.2 20.9 0.00 0.08 0.00 21 1010.1
20260503212452 23 230 6.4 20.9 0.00 0.08 0.00 18 1010.4
20260503211931 24 59 6.4 20.9 0.00 0.08 0.00 16 1010.4
20260503211431 24 343 4.8 14.5 0.00 0.08 0.00 18 1010.7
20260503210931 25 5 4.8 14.5 0.00 0.08 0.00 18 1010.6
20260503210431 24 327 4.8 14.5 0.00 0.08 0.00 18 1010.8
20260503205952 24 50 4.8 11.3 0.00 0.08 0.00 18 1010.6
20260503205431 24 317 6.4 11.3 0.00 0.08 0.00 18 1010.8
20260503204931 25 314 6.4 11.3 0.00 0.08 0.00 18 1010.9
20260503204431 24 301 3.2 12.9 0.00 0.08 0.00 19 1011.0
20260503203931 23 3 3.2 12.9 0.00 0.08 0.00 22 1011.1
20260503203452 23 46 3.2 12.9 0.00 0.08 0.00 22 1010.9
20260503202931 23 46 1.6 11.3 0.00 0.08 0.00 21 1011.3
20260503202452 23 37 4.8 16.1 0.00 0.08 0.00 20 1011.4
20260503201931 23 39 6.4 16.1 0.00 0.08 0.00 21 1011.4
20260503201431 23 6 6.4 14.5 0.00 0.08 0.00 22 1011.4
20260503200952 23 296 6.4 14.5 0.00 0.08 0.00 19 1011.4
20260503200431 23 7 4.8 14.5 0.00 0.08 0.00 21 1011.6
20260503195932 23 105 4.8 16.1 0.00 0.08 0.00 20 1011.3
20260503195431 22 326 4.8 16.1 0.00 0.08 0.00 23 1011.6
20260503194931 22 65 4.8 12.9 0.00 0.08 0.00 22 1011.3
20260503194431 23 1 4.8 14.5 0.00 0.08 0.00 21 1011.7
20260503193932 22 18 4.8 14.5 0.00 0.08 0.00 22 1011.6
20260503193431 22 40 4.8 12.9 0.00 0.08 0.00 23 1012.0
20260503192931 22 122 6.4 14.5 0.00 0.08 0.00 23 1011.9
20260503192431 23 311 6.4 14.5 0.00 0.08 0.00 21 1012.0
20260503191952 22 309 4.8 14.5 0.00 0.08 0.00 23 1012.1
20260503191431 22 58 6.4 14.5 0.00 0.08 0.00 23 1012.1
20260503190931 22 28 6.4 14.5 0.00 0.08 0.00 23 1012.4
20260503190431 23 314 4.8 14.5 0.00 0.08 0.00 24 1012.4
20260503185933 22 334 4.8 14.5 0.00 0.08 0.00 23 1012.6
20260503185431 22 357 4.8 16.1 0.00 0.08 0.00 24 1012.7
20260503184931 22 23 4.8 16.1 0.00 0.08 0.00 23 1012.5
20260503184431 22 60 4.8 12.9 0.00 0.08 0.00 22 1012.5
20260503183931 22 336 4.8 14.5 0.00 0.08 0.00 23 1012.7
20260503183431 22 331 6.4 14.5 0.00 0.08 0.00 23 1012.6
20260503182931 22 347 4.8 14.5 0.00 0.08 0.00 23 1012.7
20260503182431 22 72 3.2 11.3 0.00 0.08 0.00 23 1012.7
20260503181931 22 15 4.8 11.3 0.00 0.08 0.00 25 1012.6
20260503181431 22 326 4.8 11.3 0.00 0.08 0.00 25 1012.8
20260503180931 22 336 4.8 11.3 0.00 0.08 0.00 25 1012.9
20260503180452 22 347 4.8 11.3 0.00 0.08 0.00 25 1012.9
20260503175952 21 360 3.2 11.3 0.00 0.08 0.00 26 1012.9
20260503175431 21 11 3.2 12.9 0.00 0.08 0.00 25 1013.0
20260503174952 21 92 4.8 12.9 0.00 0.08 0.00 22 1013.2
20260503174431 21 322 4.8 12.9 0.00 0.08 0.00 24 1013.3
20260503173931 21 8 4.8 12.9 0.00 0.08 0.00 24 1013.3
20260503173431 21 21 4.8 12.9 0.00 0.08 0.00 25 1013.3
20260503172931 21 326 4.8 12.9 0.00 0.08 0.00 24 1013.4
20260503172431 20 335 3.2 9.7 0.00 0.08 0.00 26 1013.4
20260503171952 21 144 3.2 9.7 0.00 0.08 0.00 25 1013.6
20260503171431 20 61 3.2 6.4 0.00 0.08 0.00 28 1013.6
20260503170932 21 72 3.2 9.7 0.00 0.08 0.00 29 1013.2
20260503170431 20 87 3.2 9.7 0.00 0.08 0.00 27 1013.5